FW0327 Weather Reports


time (UTC)temp
F
wind
direction
speed
knots
gust
knots
rain 1hr
in
rain 24hr
in
rain mn
in
humidity
%
barometer
mb
20260506024041 53 282 0.9 2.6 0.00 0.10 0.00 96 1007.2
20260506023041 53 283 0.0 1.7 0.00 0.10 0.00 96 1007.3
20260506022042 53 270 0.9 1.7 0.00 0.10 0.00 96 1007.2
20260506021102 53 277 0.9 2.6 0.00 0.10 0.00 96 1007.1
20260506020142 53 287 0.9 1.7 0.00 0.10 0.00 96 1007.1
20260506015043 54 280 0.9 4.3 0.00 0.10 0.00 96 1007.2
20260506014043 54 267 0.0 4.3 0.00 0.10 0.00 96 1007.4
20260506013044 54 292 0.9 4.3 0.00 0.10 0.00 96 1007.5
20260506012044 54 279 0.9 2.6 0.00 0.10 0.00 96 1007.6
20260506011036 54 278 0.9 5.2 0.00 0.10 0.00 95 1007.6
20260506010017 54 273 1.7 4.3 0.00 0.10 0.00 96 1007.7
20260506005018 54 286 1.7 4.3 0.00 0.10 0.00 96 1007.8
20260506004018 54 286 0.9 5.2 0.00 0.10 0.00 97 1007.8
20260506003018 54 297 0.9 2.6 0.00 0.10 0.00 97 1007.8
20260506002018 54 276 0.9 2.6 0.00 0.10 0.00 98 1007.8
20260506001019 54 293 0.0 0.9 0.00 0.10 0.00 98 1007.9
20260506000059 53 280 0.0 0.9 0.00 0.10 0.00 98 1008.0
20260505235020 53 282 0.0 1.7 0.00 0.10 0.00 98 1008.0
20260505234048 53 282 0.0 0.9 0.00 0.10 0.00 98 1008.1
20260505233021 53 275 0.0 0.9 0.00 0.10 0.00 98 1008.2
20260505232049 53 286 0.0 0.9 0.00 0.10 0.00 98 1008.1
20260505231022 53 292 0.0 0.9 0.00 0.10 0.00 97 1008.3
20260505230050 53 0.0 0.9 0.00 0.10 0.00 97 1008.2
20260505225043 54 0.0 0.0 0.00 0.10 0.00 97 1008.3
20260505224023 54 269 0.0 1.7 0.00 0.10 0.00 97 1008.3
20260505223051 54 282 0.0 0.9 0.00 0.10 0.00 97 1008.3
20260505222023 54 292 0.0 0.9 0.00 0.10 0.00 97 1008.2
20260505221024 54 290 0.0 0.9 0.00 0.10 0.00 97 1008.2
20260505220044 54 292 0.0 0.9 0.00 0.10 0.00 97 1008.3
20260505215024 54 0.0 0.0 0.01 0.10 0.10 97 1008.3
20260505214045 54 273 0.0 0.9 0.01 0.10 0.10 97 1008.2
20260505213026 55 0.0 0.0 0.01 0.10 0.10 96 1008.3
20260505212026 55 285 0.0 0.9 0.02 0.10 0.10 96 1008.4
20260505211046 55 281 0.0 0.9 0.02 0.10 0.10 96 1008.4
20260505210027 55 279 0.0 0.9 0.02 0.10 0.10 97 1008.3
20260505205027 55 285 0.0 1.7 0.01 0.09 0.09 97 1008.3
20260505204027 55 280 0.0 2.6 0.01 0.09 0.09 97 1008.4
20260505203028 55 263 0.0 1.7 0.02 0.09 0.09 97 1008.3
20260505202057 56 0.0 0.0 0.02 0.08 0.08 97 1008.3
20260505201029 56 285 0.0 0.9 0.03 0.08 0.08 97 1008.3
20260505200029 56 0.0 0.0 0.03 0.08 0.08 97 1008.2
20260505195030 56 0.0 0.0 0.03 0.08 0.08 97 1008.3
20260505194030 56 0.0 0.0 0.04 0.08 0.08 97 1008.2
20260505193031 56 0.0 0.0 0.03 0.07 0.07 96 1008.2
20260505192031 56 0.0 0.0 0.02 0.06 0.06 96 1008.1
20260505191051 56 0.0 0.0 0.01 0.05 0.05 96 1008.1
20260505190052 57 278 0.0 0.9 0.01 0.05 0.05 95 1008.0
20260505185032 57 282 0.0 0.9 0.01 0.05 0.05 95 1008.1
20260505184033 57 276 0.0 0.9 0.00 0.04 0.04 95 1008.0
20260505183017 57 280 0.0 0.9 0.00 0.04 0.04 94 1008.0
20260505182053 57 278 0.0 0.9 0.00 0.04 0.04 93 1008.0
20260505181018 58 280 0.0 0.9 0.00 0.04 0.04 91 1007.9
20260505180034 58 0.0 0.0 0.00 0.04 0.04 88 1008.0
20260505175019 58 0.0 0.9 0.00 0.04 0.04 89 1008.1
20260505174035 58 280 0.0 0.9 0.00 0.04 0.04 87 1008.1
20260505173039 58 285 0.0 0.9 0.00 0.04 0.04 86 1008.2
20260505172036 59 287 0.0 0.9 0.00 0.04 0.04 86 1008.1
20260505171020 59 287 0.9 1.7 0.00 0.04 0.04 85 1008.1
20260505170037 60 290 0.0 0.9 0.00 0.04 0.04 85 1008.1
20260505165021 60 276 0.0 0.9 0.00 0.04 0.04 83 1008.2
20260505164038 60 283 0.0 0.9 0.00 0.04 0.04 83 1008.2
20260505163022 60 300 0.0 0.9 0.00 0.04 0.04 82 1008.3
20260505162059 60 296 0.0 0.9 0.00 0.04 0.04 81 1008.3
20260505161023 60 290 0.0 1.7 0.00 0.04 0.04 81 1008.5
20260505153024 59 296 0.0 0.9 0.00 0.04 0.04 91 1008.6
20260505152041 59 295 0.0 1.7 0.00 0.04 0.04 91 1008.7
20260505151025 59 293 0.0 0.9 0.01 0.04 0.04 90 1008.7
20260505124031 62 289 0.9 2.6 0.00 0.00 0.00 81 1009.6
20260505123048 62 294 0.9 0.9 0.00 0.00 0.00 80 1009.6
20260505122032 62 282 0.9 1.7 0.00 0.00 0.00 78 1009.7
20260505121017 62 293 0.9 4.3 0.00 0.00 0.00 77 1009.6
20260505120017 62 281 0.9 2.6 0.00 0.00 0.00 73 1009.8
20260505115017 63 294 0.9 1.7 0.00 0.00 0.00 73 1009.7
20260505114018 62 293 0.9 1.7 0.00 0.00 0.00 71 1009.6
20260505113018 63 279 0.9 5.2 0.00 0.00 0.00 70 1009.8
20260505112019 62 279 1.7 6.1 0.00 0.00 0.00 71 1009.7
20260505111019 63 295 0.9 1.7 0.00 0.00 0.00 70 1009.8
20260505102021 66 288 1.7 6.1 0.00 0.00 0.00 63 1009.9
20260505101022 66 295 0.9 4.3 0.00 0.00 0.00 63 1010.0
20260505100022 67 287 0.9 5.2 0.00 0.00 0.00 62 1010.0
20260505095022 66 273 1.7 5.2 0.00 0.00 0.00 64 1010.0
20260505094043 64 306 0.9 4.3 0.00 0.00 0.00 66 1010.0
20260505093023 65 289 0.9 4.3 0.00 0.00 0.00 66 1010.1
20260505092023 65 283 1.7 2.6 0.00 0.00 0.00 66 1010.2
20260505091024 64 289 0.9 5.2 0.00 0.00 0.00 65 1010.2
20260505090025 65 294 0.9 1.7 0.00 0.00 0.00 64 1010.1
20260505085025 65 272 0.0 1.7 0.00 0.00 0.00 65 1010.1
20260505084045 64 284 0.0 0.9 0.00 0.00 0.00 67 1010.2
20260505083026 65 292 0.0 1.7 0.00 0.00 0.00 65 1010.1
20260505082026 65 301 0.0 1.7 0.00 0.00 0.00 64 1010.2
20260505081027 65 291 0.9 2.6 0.00 0.00 0.00 64 1010.2
20260505080027 64 307 0.0 0.9 0.00 0.00 0.00 66 1010.4
20260505075028 63 319 0.0 0.9 0.00 0.00 0.00 69 1010.4
20260505074108 63 339 0.0 0.9 0.00 0.00 0.00 69 1010.4
20260505073028 61 294 0.0 0.9 0.00 0.00 0.00 72 1010.5
20260505072029 60 305 0.0 0.9 0.00 0.00 0.00 76 1010.6
20260505071029 59 288 0.0 0.9 0.00 0.00 0.00 78 1010.7
20260505070030 58 283 0.0 0.9 0.00 0.00 0.00 80 1010.8
20260505065030 56 298 0.0 0.9 0.00 0.00 0.00 83 1010.8
20260505064050 54 299 0.0 0.9 0.00 0.00 0.00 86 1010.9
20260505063031 53 0.0 0.0 0.00 0.00 0.00 88 1010.9
20260505062031 52 0.0 0.0 0.00 0.00 0.00 89 1011.2
20260505061032 51 0.0 0.9 0.00 0.00 0.00 90 1011.3
20260505060052 51 0.0 0.9 0.00 0.00 0.00 91 1011.3
20260505055032 50 317 0.0 0.9 0.00 0.00 0.00 91 1011.1
20260505054033 50 0.0 0.0 0.00 0.00 0.00 91 1011.1
20260505053033 49 0.0 0.0 0.00 0.00 0.00 92 1011.3
20260505052054 49 325 0.0 0.9 0.00 0.00 0.00 92 1011.1
20260505051034 49 0.0 0.0 0.00 0.00 0.00 92 1011.1
20260505041037 49 0.0 0.0 0.00 0.00 0.00 93 1011.1
20260505040057 49 0.0 0.0 0.00 0.00 0.00 93 1011.3
20260505035058 50 0.0 0.0 0.00 0.00 0.00 92 1011.3
20260505034118 50 0.0 0.0 0.00 0.00 0.00 92 1011.3
20260505033038 50 0.0 0.0 0.00 0.00 0.00 92 1011.2
20260505032038 51 0.0 0.0 0.00 0.00 0.00 91 1011.3
20260505031039 51 0.0 0.0 0.00 0.00 0.00 91 1011.4
20260505030040 51 0.0 0.0 0.00 0.00 0.00 91 1011.4
20260505025040 52 0.0 0.0 0.00 0.00 0.00 89 1011.5